Tracking 30415 objects as of 15-May-2025
HD Live streaming from Space Station
objects crossing your sky now

FENGYUN 1C DEB

Track FENGYUN 1C DEB now!
10-day predictions


NORAD ID: 31660
Int'l Code: 1999-025CBS
Perigee: 736.0 km
Apogee: 886.2 km
Inclination: 98.5 °
Period: 101.0 minutes
Semi major axis: 7182 km
RCS: 0.0107 m2 (small)
Launch date: May 10, 1999
Source: People's Republic of China (PRC)
Launch site: Taiyaun Space Center, China (TSC)

Note: This is SATELLITE DEBRIS
Your satellite tracking list
Your tracking list is empty




NASA's NSSDC Master Catalog

Two Line Element Set (TLE):
1 31660U 99025CBS 25134.80843444  .00001693  00000-0  68156-3 0  9999
2 31660  98.5028 142.0624 0104583  82.4189 278.8857 14.26344564933719
Source of the keplerian elements: AFSPC